Regional Weather Roundup
Issued by NWS Mt. Holly, NJ

Home | Current Version | Previous Version | Text Only | Print | Product List | Glossary On
Versions: 1 2 3 4 5 6 7 8 9 10 11 12 13 14 15 16 17 18 19 20 21 22 23 24 25 26 27 28 29 30 31 32 33 34 35 36 37 38 39 40 41 42 43 44 45 46 47 48 49 50
000
ASUS41 KPHI 180110
RWRPHI

REGIONAL WEATHER ROUNDUP
NATIONAL WEATHER SERVICE MOUNT HOLLY NJ
800 PM EST WED DEC 17 2014

NOTE:  "FAIR" INDICATES FEW OR NO CLOUDS BELOW 12,000 FEET WITH NO
SIGNIFICANT WEATHER AND/OR OBSTRUCTIONS TO VISIBILITY.

 * = STATION DOES NOT REPORT PRECIPITATION (E.G. RAIN, SNOW, ETC.)
        OR FOG.

NJZ015>026-180200-
SOUTHERN NEW JERSEY

CITY           SKY/WX    TMP DP  RH WIND       PRES   REMARKS
POMONA         CLEAR     42  27  55 W12       29.96R
RIO GRANDE*    CLEAR     43  30  61 NW9       29.97R
MILLVILLE      CLEAR     42  28  57 NW12      29.98R
WRIGHTSTOWN    CLEAR     42  29  59 W9        29.92R
MOUNT HOLLY    CLEAR     43  27  53 W10G20    29.96R
TRENTON        PTCLDY    42  26  53 W9        29.93R

$$
NJZ001>014-180200-
NORTHERN NEW JERSEY

CITY           SKY/WX    TMP DP  RH WIND       PRES   REMARKS
SUSSEX         CLOUDY    41  33  73 SW5       29.89R
ANDOVER*         N/A     41  29  62 VRB3      29.90R
MORRISTOWN     CLOUDY    48  30  49 NW14G21   29.90R
NEWARK         MOCLDY    45  30  55 W14G21    29.90R
TETERBORO      LGT RAIN  45  35  68 NW10      29.88R
CALDWELL       CLOUDY    43  34  70 NW6       29.90R
SOMERVILLE     CLEAR     43  29  57 VRB7      29.90R
ALLAIRE*       CLEAR     43  27  52 W8        29.92R
TOMS RIVER*    CLEAR     43  28  56 CALM      29.93S

$$
PAZ043-044-047-054-055-060>062-066>071-180200-
EASTERN PENNSYLVANIA

CITY           SKY/WX    TMP DP  RH WIND       PRES   REMARKS
PHILADELPHIA   PTCLDY    44  26  49 W13       29.98R
NORTH PHILA    CLEAR     43  26  51 W10       29.97R
BLUE BELL      CLEAR     41  28  60 W8        29.95S
DOYLESTOWN     CLOUDY    39  27  62 W9        29.93R WCI  33
QUAKERTOWN*    CLOUDY    39  28  65 W12       29.95S WCI  32
POTTSTOWN      CLEAR     38  24  57 W7G20     29.98R WCI  33
LANCASTER      CLOUDY    38  22  52 NW16G25   30.00R WCI  29
COATESVILLE    CLEAR     37  28  70 NW12      29.98R WCI  30
READING        MOCLDY    39  23  52 W14G22    29.97R WCI  31
ALLENTOWN      CLOUDY    41  25  53 W10G21    29.94R
MOUNT POCONO   PTCLDY    33  26  75 W13       29.85S WCI  24
HAZLETON       CLOUDY    34  28  80 W13G20    29.93S WCI  25
WILKES BARRE   CLOUDY    39  25  57 W18G28    29.90S WCI  30

$$
DEZALL-MDZ008-012-015-019-020-180200-
DELAWARE AND EASTERN MARYLAND

CITY           SKY/WX    TMP DP  RH WIND       PRES   REMARKS
WILMINGTON     CLEAR     40  26  57 W10       30.00R WCI  33
DOVER          CLEAR     42  28  58 NW13      29.96F
GEORGETOWN     CLEAR     45  29  53 NW3       30.00R
EASTON         PTCLDY    45  30  57 NW12G17   30.04R
PATUXENT       PTCLDY    44  28  53 NW14      30.02R
OCEAN CITY     CLEAR     41  32  70 NW7       30.00R
WALLOPS ISLAND CLEAR     40  39  97 NW3       30.01S
SALISBURY      CLEAR     41  32  70 CALM      30.00R

$$
PAZ001-021-NYZ056-072-MDZ011-DCZ001-180200-
OTHER NEARBY LOCATIONS

CITY           SKY/WX    TMP DP  RH WIND       PRES   REMARKS
HARRISBURG     MOCLDY    38  22  52 NW23G31   30.01R WCI  27
STATE COLLEGE  CLOUDY    32  23  69 NW23      30.02R WCI  19
WILLIAMSPORT   CLOUDY    36  24  62 W13       29.98R WCI  27
BINGHAMTON     CLOUDY    32  29  88 W10       29.87R WCI  24
NEW YORK CITY  CLOUDY    45  35  68 VRB3      29.91R
BALTIMORE      PTCLDY    40  24  53 NW15G23   30.03R WCI  32
WASHINGTON DC  CLEAR     45  25  45 NW13      30.05R

$$


USA.gov is the U.S. government's official web portal to all federal, state and local government web resources and services.